Theta_e
301 300 301 301 301 302 302 303 303 304 304 305 306 306 307 306 307 307 307 309 312 317 317 318 321 325 326 323 324 319 322 319 320 323 322 324 326 326 328 328 330 325 323 321 324 329 328 329 332 330 326 331 333 329
300 300 300 301 301 302 302 303 303 304 304 305 305 306 307 307 307 307 307 311 310 311 313 315 316 318 322 324 321 320 319 318 320 322 322 323 326 323 323 328 327 332 325 326 324 326 325 327 328 327 324 332 334 334
300 300 301 301 301 302 302 302 303 303 303 304 304 306 306 306 307 308 307 307 307 313 314 314 318 320 320 320 321 322 318 316 318 316 319 324 328 323 327 326 331 331 326 331 330 329 329 329 326 326 330 332 332 334
300 301 301 301 301 301 301 302 302 302 303 304 304 305 307 307 306 307 308 308 309 308 315 317 320 321 322 322 323 322 320 320 316 316 320 321 327 323 325 325 325 328 329 329 330 329 328 327 328 329 332 332 333 333
300 301 301 301 301 301 301 301 301 301 301 302 303 304 305 307 307 307 308 309 308 311 315 316 316 319 322 321 322 323 322 320 319 319 320 323 321 323 323 324 328 327 329 329 330 326 326 326 328 330 333 334 334 335
300 300 301 301 301 301 301 301 300 302 301 302 304 305 306 307 307 308 309 311 309 308 314 321 318 320 323 320 322 321 321 316 320 321 322 321 319 322 328 330 327 325 324 324 328 325 326 328 329 329 332 333 332 333
299 299 300 300 300 300 300 300 302 302 303 304 304 307 311 309 308 308 313 312 309 309 315 322 322 321 322 314 313 313 315 314 315 316 321 322 323 320 324 329 328 326 326 326 325 327 329 328 330 328 330 330 330 329
299 299 299 299 300 300 300 301 302 302 303 303 306 314 312 309 308 309 314 313 312 311 312 323 326 324 318 316 317 311 315 315 316 317 318 321 319 319 325 321 323 327 328 327 326 325 327 325 326 326 327 328 329 329
300 300 300 300 300 300 300 302 303 303 303 305 311 314 311 311 310 314 316 316 313 312 322 325 328 330 321 319 316 315 312 319 313 318 318 318 318 324 322 326 324 326 326 324 324 325 326 326 326 327 328 328 328 326
300 301 300 300 300 300 300 303 303 304 303 307 313 314 315 315 315 316 317 315 312 316 314 320 318 325 322 322 321 319 314 315 321 320 317 318 318 317 323 323 323 325 327 326 327 326 326 326 325 326 326 324 324 323
300 300 300 300 300 300 301 303 303 303 303 304 303 309 312 314 318 318 321 320 319 322 318 317 318 322 320 324 325 320 320 319 322 321 323 321 323 325 324 324 324 324 325 324 322 322 322 323 323 324 322 322 321 322
300 301 302 300 300 300 302 303 304 302 303 303 303 305 308 315 319 322 323 323 323 326 322 322 321 318 319 320 325 324 325 322 328 322 327 330 323 325 323 324 324 324 327 325 324 324 322 322 321 321 321 321 322 324
301 301 301 301 300 300 304 304 303 302 303 307 308 313 315 318 319 323 326 325 324 323 324 324 325 320 316 318 323 325 328 327 322 324 326 324 323 323 321 320 322 324 327 325 323 322 322 322 322 322 321 323 323 323
301 301 301 301 301 304 304 302 301 302 305 310 315 311 317 317 320 324 323 323 320 322 323 322 325 323 317 321 321 330 328 325 327 328 326 321 321 321 319 320 323 323 324 326 327 324 322 322 323 323 322 322 322 321
301 301 301 302 304 303 301 302 304 305 306 312 316 315 318 319 319 319 319 320 318 320 322 321 323 323 321 323 323 327 331 330 328 327 322 321 320 319 321 322 324 324 325 325 326 325 323 321 321 321 322 322 323 324
301 301 305 305 302 301 302 304 306 306 308 310 311 316 317 318 320 318 319 319 316 319 318 322 325 326 329 323 329 329 330 329 324 322 321 320 319 320 320 321 323 324 324 323 323 323 322 322 322 322 322 322 323 324
300 301 302 300 301 302 304 306 308 309 310 315 314 311 314 314 316 317 317 318 316 320 322 324 327 328 324 326 327 326 325 324 323 322 320 320 320 320 320 320 324 327 326 325 326 325 323 324 323 322 321 321 322 324
299 300 300 301 302 303 305 307 306 311 312 311 312 312 311 315 315 314 315 318 319 320 322 323 323 327 328 329 327 324 322 320 320 320 320 320 320 322 323 324 325 325 325 325 326 324 323 324 322 321 321 323 324 323
300 300 301 303 303 303 303 306 307 309 309 308 308 307 309 310 310 311 312 318 320 319 320 321 325 325 324 322 324 323 321 321 323 321 318 319 320 320 322 324 324 324 324 325 323 323 323 321 322 323 323 323 322 322
300 302 305 306 305 303 304 304 308 307 310 308 306 308 308 310 311 310 311 318 321 321 323 323 323 321 321 320 320 321 321 322 323 325 324 322 322 322 321 321 324 324 324 321 322 322 323 323 324 324 323 322 321 320
301 305 305 306 305 305 301 302 304 306 308 308 307 309 311 309 311 313 313 314 319 320 321 320 319 317 319 320 322 323 321 324 325 325 325 326 323 324 323 326 326 321 320 320 320 320 321 320 321 320 320 319 319 318
301 302 305 306 305 304 306 305 303 304 306 306 307 307 309 310 312 312 311 315 316 316 316 315 315 315 319 321 321 325 325 325 325 323 321 320 319 320 321 322 321 319 319 320 321 320 320 319 317 315 314 314 314 313
301 303 303 304 305 301 304 304 307 306 310 311 309 311 312 312 311 310 314 313 313 312 311 311 311 315 318 321 324 326 325 325 321 320 321 321 321 322 322 322 320 319 317 320 322 320 316 313 312 312 312 311 311 311
303 304 305 306 303 301 302 306 305 308 309 311 312 314 314 313 316 317 320 317 314 316 318 318 318 319 319 320 322 323 324 323 322 322 323 323 319 320 321 320 320 318 322 322 318 314 312 311 311 311 310 310 310 310
305 305 300 295 301 306 308 309 308 309 313 312 313 314 314 317 319 319 321 318 319 318 319 318 318 318 320 320 319 322 323 323 322 321 323 323 322 320 319 320 319 322 322 319 314 312 311 310 311 310 310 310 310 310
303 301 301 305 305 305 307 311 311 311 311 315 313 313 320 319 322 323 322 322 320 320 320 320 320 320 320 319 320 319 321 322 322 322 323 325 323 321 318 320 321 322 322 320 314 311 310 310 310 310 311 310 310 310
302 302 300 299 302 304 307 308 309 313 316 317 317 319 319 323 326 326 324 323 323 322 320 321 321 320 321 322 324 324 326 326 324 322 323 325 324 324 323 322 322 324 322 319 315 313 311 310 310 310 311 311 310 311
303 301 303 303 304 304 308 309 311 314 317 316 318 321 324 325 325 323 323 322 322 321 320 320 321 322 324 324 325 325 326 325 325 325 323 320 321 321 322 322 323 322 321 318 316 314 312 312 312 312 313 314 313 313
301 300 302 304 305 306 308 309 309 308 314 313 316 319 322 320 319 322 321 321 322 320 319 322 324 324 324 325 324 324 325 321 318 318 318 318 318 321 322 323 322 321 319 316 315 315 314 313 314 315 315 315 314 312
301 299 303 305 307 310 311 307 308 307 310 311 312 314 313 315 317 318 319 320 320 319 320 323 325 323 323 320 321 323 325 321 321 319 317 317 317 321 322 322 322 320 317 316 316 315 314 314 313 313 314 314 314 314
300 300 304 305 306 307 307 308 309 309 311 312 309 311 312 312 316 319 320 320 320 322 323 323 325 325 323 322 321 322 323 324 321 320 319 320 319 320 322 323 323 320 318 317 316 316 316 315 314 314 314 314 314 314
304 305 306 309 309 307 307 309 309 310 310 311 311 310 313 316 318 315 322 322 322 321 323 323 324 325 326 326 326 325 325 325 324 322 321 321 320 320 321 323 323 321 319 318 318 318 317 317 317 317 317 318 318 318
312 311 309 309 310 311 310 310 311 312 311 311 311 312 315 316 319 315 319 321 323 324 323 322 323 325 325 325 326 325 324 324 324 323 323 322 321 320 321 322 322 322 321 320 319 319 319 319 319 319 320 320 320 320
Wind_Speed
15 15 16 18 19 19 19 19 20 18 18 17 17 16 16 15 13 13 15 14 9 3 7 8 5 5 4 3 2 5 8 3 3 4 3 3 3 2 2 1 3 4 5 3 3 2 7 4 3 9 6 1 3 3
15 17 17 19 20 21 21 21 18 18 18 18 17 16 15 14 13 10 7 2 4 7 6 21 29 35 26 23 2 2 4 4 3 3 0 2 2 2 3 2 2 1 5 3 6 5 4 5 6 3 2 4 5 8
15 17 19 21 21 21 22 22 21 19 18 18 19 18 17 14 12 11 15 12 8 3 8 4 10 14 18 33 28 4 3 4 2 2 3 2 4 3 2 3 0 3 2 3 1 3 6 6 6 3 3 6 6 7
15 18 20 20 21 21 23 23 23 23 22 21 20 20 19 18 14 12 15 10 5 5 4 7 7 12 7 13 20 39 12 6 2 2 1 2 3 2 2 2 2 3 2 2 2 5 2 7 4 4 6 7 10 8
14 16 18 20 21 22 25 27 28 26 25 23 21 21 21 19 16 16 21 24 23 5 3 6 19 14 7 17 23 26 17 3 3 2 2 1 2 3 2 2 2 1 4 3 4 3 3 4 5 4 4 4 5 6
16 18 19 20 23 25 27 29 30 28 26 24 23 24 23 18 13 9 3 3 19 18 3 4 6 5 7 10 14 12 10 4 4 3 2 2 2 3 3 0 4 4 4 5 3 4 3 3 2 3 2 3 5 4
18 19 21 23 25 25 27 28 28 27 27 27 27 25 20 15 10 7 2 2 11 15 2 5 5 4 3 4 5 4 7 3 3 2 0 1 2 3 3 2 5 5 4 2 4 3 3 3 3 2 1 4 6 5
19 20 22 24 25 27 27 27 26 29 31 31 26 20 14 8 9 10 1 13 16 4 2 3 5 5 5 2 2 1 3 1 2 3 2 1 2 2 2 5 4 3 4 3 5 5 3 6 5 4 5 6 5 6
19 19 21 23 24 25 26 25 27 32 35 26 17 11 2 4 4 1 10 3 24 3 3 2 2 3 5 2 0 2 2 2 2 2 1 2 1 3 2 4 5 3 4 4 5 5 3 2 4 7 6 6 5 5
18 19 21 23 24 25 24 22 27 35 31 17 5 2 2 3 8 6 2 2 3 3 3 3 1 4 2 3 3 2 2 2 2 2 1 2 2 1 2 5 7 7 7 4 1 4 3 4 6 4 2 4 5 5
19 20 22 23 23 23 22 19 26 35 13 10 8 2 10 10 2 2 3 3 2 3 3 4 4 2 1 1 2 1 2 1 2 3 3 1 3 2 5 6 6 7 7 7 7 5 2 2 4 5 6 6 11 13
19 20 22 23 23 23 20 15 24 27 18 14 15 12 7 3 2 3 3 2 3 3 2 2 3 4 4 2 2 2 2 2 2 1 3 0 3 2 5 6 8 8 8 6 6 5 6 8 12 10 8 9 12 14
19 21 23 24 21 22 13 17 23 25 22 3 3 3 1 3 1 4 2 1 2 2 2 3 3 1 2 1 1 2 3 1 1 4 1 4 2 1 3 5 7 8 8 8 7 7 16 14 17 18 11 14 14 10
18 22 23 20 17 9 16 23 23 20 4 2 2 4 2 1 4 2 3 4 4 2 3 2 3 2 2 1 1 3 1 1 3 1 3 3 3 2 4 4 5 7 7 6 6 7 7 8 9 8 8 10 10 8
20 23 18 10 4 16 23 24 18 5 2 3 2 3 4 3 4 5 7 4 3 2 2 3 3 1 1 2 2 3 2 1 2 3 3 3 1 1 2 4 5 6 4 4 4 3 3 3 4 4 4 4 3 2
19 17 1 4 16 24 23 17 2 3 3 2 4 3 2 3 1 5 6 3 2 2 1 1 2 2 3 2 1 2 6 4 3 3 3 0 2 3 3 4 4 5 8 6 6 5 3 2 2 3 2 3 4 7
15 5 4 14 21 22 13 1 2 3 3 3 4 4 3 2 3 4 3 3 2 2 2 1 1 1 2 2 1 1 3 2 2 2 2 3 3 2 2 3 2 3 6 6 8 8 7 5 4 2 2 7 8 9
7 12 13 15 18 16 3 2 2 2 5 4 2 3 2 3 3 5 4 2 0 1 0 2 1 1 2 2 2 2 2 1 2 2 3 3 3 4 3 4 4 3 5 7 5 4 3 3 6 7 6 5 6 6
18 16 14 10 6 5 3 3 2 3 5 3 4 3 3 4 4 5 3 2 3 1 1 1 0 1 3 3 3 2 2 2 1 2 2 3 5 5 6 4 5 6 5 3 2 3 3 2 2 2 1 1 1 1
13 10 3 4 5 2 2 3 2 2 3 3 2 3 3 3 2 2 2 3 3 2 0 2 3 3 3 3 3 3 2 3 2 2 1 1 3 7 8 7 5 1 1 3 5 6 5 3 2 3 4 4 3 2
6 1 4 1 3 4 2 2 3 3 3 2 3 1 4 2 3 2 2 3 1 2 2 3 3 3 4 4 4 4 5 5 2 2 2 2 0 2 3 3 4 2 4 2 3 1 4 3 3 2 4 5 4 4
2 3 2 3 2 2 3 6 3 4 2 3 3 2 3 3 3 3 3 2 3 4 4 4 3 2 2 3 3 4 3 7 5 3 1 3 2 0 2 3 4 6 6 5 2 4 2 2 4 5 5 5 4 6
3 1 3 2 1 1 6 2 2 3 2 3 3 3 3 2 3 1 2 3 4 3 2 3 3 3 2 2 4 3 4 7 4 3 1 2 1 3 4 2 6 10 6 4 5 5 3 3 4 4 4 4 3 4
2 2 2 3 5 4 2 2 2 3 2 2 2 4 3 3 1 2 2 2 2 3 1 1 2 1 2 2 3 3 5 5 2 1 1 3 2 1 4 7 2 6 7 12 9 7 6 7 6 5 6 8 12 14
1 2 3 5 2 1 3 3 3 0 3 3 2 4 3 1 1 1 1 2 3 2 2 2 1 1 2 1 1 4 7 8 5 3 4 6 3 2 6 9 8 11 14 13 10 9 8 8 9 12 12 13 19 20
4 4 7 5 3 3 4 2 3 4 3 3 4 3 1 1 0 2 1 2 2 2 2 1 1 1 1 2 2 2 4 8 8 4 5 7 7 2 4 4 3 6 7 5 13 14 14 15 15 15 15 15 15 16
4 5 4 3 2 2 3 3 2 1 2 3 3 2 2 2 1 2 3 2 2 3 5 4 2 2 2 3 4 4 5 6 7 5 3 3 8 7 7 10 10 9 11 11 13 18 22 20 19 18 17 15 13 10
5 2 5 3 3 3 2 2 2 3 3 2 1 1 2 1 2 2 3 7 6 10 9 5 5 5 5 3 2 2 2 5 8 6 3 5 3 6 9 8 12 13 12 10 13 18 20 20 18 15 12 10 8 6
3 2 2 3 3 3 5 5 4 3 2 2 1 2 1 2 3 4 12 14 11 7 6 4 2 3 5 6 7 6 6 11 15 6 5 4 3 6 14 18 17 15 13 11 12 14 16 15 14 14 12 10 8 7
4 4 4 3 5 5 4 5 3 3 2 2 2 2 2 3 9 12 16 14 9 7 6 6 5 5 4 4 4 7 10 16 17 14 7 7 10 18 19 20 19 17 16 15 17 16 13 12 11 9 8 7 6 5
2 4 3 3 4 3 4 2 3 2 2 1 1 3 3 3 6 4 4 6 6 5 7 7 5 4 4 5 5 4 3 13 16 11 7 7 16 20 19 19 19 19 18 17 17 16 15 13 10 8 7 6 6 6
4 6 4 3 3 3 2 1 1 2 2 2 3 2 2 2 3 3 4 5 4 4 5 3 3 4 1 3 4 5 5 8 9 12 12 11 18 19 18 18 20 20 19 18 16 15 14 12 10 9 8 8 7 7
3 3 3 2 2 2 2 2 1 3 2 2 3 4 4 4 5 4 3 6 6 5 5 6 6 12 8 9 7 7 6 8 9 11 13 11 19 19 17 18 20 20 20 18 17 15 13 11 10 9 8 8 8 7
Wind_Direction
339 342 343 342 342 341 337 332 335 338 337 336 338 337 333 327 323 322 298 275 227 258 283 238 249 226 255 214 234 315 328 318 358 63 118 195 137 220 63 207 169 163 139 172 102 106 273 174 133 157 216 335 136 118
338 340 343 339 340 336 335 334 333 331 330 330 331 329 324 319 321 313 290 322 269 249 268 288 269 260 247 232 208 298 265 287 240 78 45 110 99 63 146 182 31 27 174 193 175 215 270 287 273 314 144 174 146 121
340 341 337 336 336 336 336 334 332 326 321 320 318 322 318 309 303 292 283 290 300 269 278 258 243 273 249 241 231 209 251 246 18 174 164 154 91 125 138 244 54 12 126 117 37 306 305 308 308 290 176 122 91 110
337 335 333 333 333 334 338 336 333 329 324 319 319 319 316 310 300 281 274 268 259 278 276 280 324 268 280 240 214 212 240 322 1 75 116 120 114 171 187 189 168 210 78 171 263 261 316 358 10 1 45 70 89 62
324 325 332 332 330 331 334 337 334 328 322 317 316 317 314 307 301 285 272 257 236 230 286 286 304 285 268 225 217 213 227 223 293 351 31 295 132 107 11 64 335 207 186 151 219 247 149 240 338 1 104 105 113 111
316 320 323 327 328 329 330 331 331 328 323 319 317 314 308 300 300 308 300 239 222 201 269 294 296 298 317 197 179 198 192 187 208 175 218 281 261 96 91 158 254 231 213 195 249 193 182 307 62 40 74 119 78 57
313 317 321 323 324 326 330 332 334 334 328 322 319 313 302 284 246 216 249 55 160 180 250 290 299 262 248 165 173 166 164 186 144 154 179 154 19 73 112 163 238 212 193 228 254 174 53 46 184 265 65 92 90 80
312 315 320 324 326 328 332 333 336 336 331 325 318 315 303 259 241 264 343 209 195 254 255 273 273 328 8 7 100 337 99 112 343 107 44 140 15 63 242 262 320 274 185 272 279 287 219 137 119 129 131 140 137 174
310 314 320 324 326 329 332 333 337 336 334 326 316 310 249 187 200 237 329 290 200 235 287 256 275 277 352 353 42 48 55 75 349 106 230 105 311 211 267 309 321 345 299 336 354 323 136 296 207 174 162 177 154 117
304 311 317 323 327 330 332 334 340 339 339 334 332 317 294 209 295 290 210 169 169 214 234 248 280 261 10 360 5 74 23 128 126 253 9 72 250 248 268 264 266 279 268 272 20 259 251 238 200 172 60 71 101 100
303 309 315 319 323 328 330 331 342 343 347 355 359 304 307 318 156 197 227 198 171 237 200 238 215 251 264 118 275 25 162 132 101 262 138 340 308 261 321 317 318 319 299 262 236 264 172 212 193 120 100 99 113 120
304 311 313 316 320 324 325 329 341 343 331 306 298 298 299 313 19 279 227 245 201 237 250 224 240 218 276 147 103 340 105 51 156 294 82 313 250 292 347 330 326 332 331 319 218 169 127 119 126 125 127 123 117 121
307 312 314 314 318 321 317 325 330 328 328 303 220 252 69 14 303 261 272 320 270 258 273 333 304 262 324 81 107 81 73 184 82 40 211 231 269 341 316 313 325 343 17 26 4 101 114 110 124 125 124 133 137 144
311 311 308 311 320 321 321 322 324 326 303 285 281 305 176 244 259 330 331 312 270 272 306 259 246 248 309 128 154 96 94 122 73 75 242 262 229 245 315 320 329 336 358 22 25 41 67 110 121 129 136 154 157 166
309 310 315 314 310 321 322 322 320 290 246 264 254 241 198 172 261 268 274 279 271 263 298 311 267 218 299 96 38 112 104 84 195 218 232 246 102 178 289 328 316 307 336 353 352 348 71 104 118 99 110 134 164 169
313 323 28 288 318 320 324 323 318 198 243 237 241 268 224 187 232 303 303 287 296 290 263 260 272 34 48 37 113 169 130 195 225 216 233 142 188 225 252 290 318 343 1 5 29 39 69 96 160 134 152 215 251 233
311 248 291 318 325 322 324 303 219 232 255 253 249 235 231 235 216 254 269 254 270 6 306 302 39 139 298 64 354 185 196 209 171 232 244 217 207 240 278 265 322 12 3 6 16 40 36 338 267 221 230 241 242 220
269 295 312 330 338 338 321 242 255 265 253 253 248 274 210 223 236 256 262 251 149 234 91 271 165 149 143 158 279 253 243 242 192 193 227 209 222 249 167 186 184 283 315 329 323 285 233 250 267 257 235 191 171 187
282 302 323 336 310 313 323 286 198 257 248 259 265 263 242 251 238 254 249 206 195 185 104 21 330 212 239 221 219 227 198 200 181 229 247 255 225 231 241 256 282 282 293 306 304 259 265 248 196 146 138 220 269 309
294 315 328 303 231 184 275 269 229 245 269 255 274 275 236 239 277 262 268 170 179 153 223 216 222 221 208 233 205 201 183 161 162 104 48 300 205 193 214 231 246 310 94 115 141 146 157 140 41 349 342 343 333 286
310 110 340 242 202 226 237 281 278 227 282 276 269 268 267 301 267 231 230 145 129 219 233 220 238 253 258 255 216 161 145 158 135 153 181 139 162 237 317 265 278 110 129 161 207 121 63 42 4 358 346 339 318 285
253 322 299 233 241 222 255 226 223 281 286 257 307 211 272 278 253 224 138 153 214 226 197 195 226 218 236 232 194 166 181 196 174 202 182 136 113 263 241 257 180 182 190 220 186 106 80 9 353 345 335 322 298 289
277 270 228 231 256 295 261 188 235 235 246 269 327 288 250 250 230 115 223 213 242 248 238 227 257 249 225 228 142 131 164 167 177 182 188 129 86 209 206 267 208 182 162 111 134 126 90 28 21 23 11 9 11 37
192 250 250 236 166 252 324 261 226 271 279 277 255 274 262 240 12 93 242 260 272 304 330 295 192 126 64 132 192 170 167 183 190 275 265 174 140 245 297 311 345 172 166 144 127 99 69 65 53 55 71 84 86 91
287 261 134 284 259 245 249 271 247 195 253 248 267 279 268 358 32 293 239 287 322 318 312 6 61 192 199 212 118 187 193 210 192 220 239 221 218 86 83 90 117 141 145 133 117 99 93 101 96 95 93 100 103 109
237 222 172 213 245 190 219 251 210 221 226 256 240 256 275 53 320 272 273 264 274 291 313 18 90 75 336 222 180 183 220 216 213 211 253 223 219 217 156 146 139 146 167 155 132 123 116 111 112 105 87 91 107 116
245 250 228 233 239 251 274 260 260 283 273 248 272 313 346 277 8 1 299 253 250 315 323 304 274 231 229 299 287 265 269 227 203 214 189 236 232 257 223 164 167 167 161 154 147 142 136 136 129 124 116 118 123 126
221 219 193 221 223 222 259 279 250 238 253 253 307 292 359 76 325 268 241 260 299 326 325 306 289 261 254 259 269 276 251 211 206 213 158 110 131 154 163 142 145 144 146 154 152 152 147 144 141 137 138 140 141 158
244 247 151 243 237 239 219 204 227 239 217 121 17 303 169 134 233 246 264 281 290 266 304 320 305 232 243 248 247 240 218 179 149 152 146 138 125 140 148 141 140 144 143 139 148 155 157 153 150 143 143 150 154 167
246 172 193 223 200 216 233 185 222 251 251 189 189 301 307 259 260 267 260 257 248 251 280 294 276 275 280 245 220 202 212 200 191 167 159 183 184 157 153 151 150 151 150 148 149 151 157 165 165 168 174 180 198 225
182 163 231 223 241 234 220 243 259 250 277 262 224 202 243 281 301 285 262 245 246 279 300 302 310 277 235 213 209 183 183 199 206 214 225 185 165 162 164 164 164 165 164 161 158 155 158 168 172 174 185 203 221 243
182 201 190 215 261 282 328 199 238 233 248 214 237 199 284 2 277 278 229 243 275 303 290 290 247 219 256 291 259 218 197 171 187 200 202 182 173 171 168 168 173 176 174 174 173 171 174 177 183 195 209 224 238 252
182 174 201 250 282 262 252 160 272 281 253 237 238 209 196 182 226 262 284 259 266 280 278 293 250 232 264 313 282 248 208 179 185 192 196 190 174 170 167 170 179 186 188 188 189 192 197 206 218 231 245 260 266 274